Hovedside
METAR-TAF:

METAR-TAF

Lufthavner :

Borlänge, Sverige

Dala lufthavn

breddegrad: 60-26N, lengdegrad: 015-31E, høyde over havet: 145 m

Gjeldene værobservasjon

Denne rapporten ble laget for 16 minutter siden, klokken 22:20 UTC
Vind 3 kt fra Nordøst
Temperatur 14°C
Luftfuktighet 82%
Trykk 1015 hPa
Sikt 10 km eller mer

METAR: ESSD 242220Z AUTO 05003KT 9999 NCD 14/11 Q1015

Tid: 00:36 (22:36 UTC)


TAF: fraværende

Værobservasjoner og værvarsel for over 4000 flyplasser (METAR- og TAF-rapporter).

Tilgjengelige stasjoner er representert av de røde og gule prikkene på kartet.

Hold musepekeren over prikken for å se navnet på stasjonen.

Klikk så for å se værobservasjoner og -varsler.

For å forandre kartet kan du klikke på den grønne knappen med svart kryss for å zoome inn, på den grønne knappen med strek for å zoome ut, eller på de grønne pilene for å se tilstøtende kart.


METAR-TAF: